TimeEST,TemperatureF,Dew PointF,Humidity,Sea Level PressureIn,VisibilityMPH,Wind Direction,Wind SpeedMPH,Gust SpeedMPH,PrecipitationIn,Events,Conditions,WindDirDegrees,DateUTC
12:56 AM,43.0,39.9,89,30.38,10.0,NE,4.6,-,N/A,,Partly Cloudy,40,2012-11-30 05:56:00
1:56 AM,44.1,39.0,82,30.38,10.0,NNE,3.5,-,N/A,,Clear,20,2012-11-30 06:56:00
2:56 AM,41.0,37.9,89,30.38,10.0,North,3.5,-,N/A,,Partly Cloudy,10,2012-11-30 07:56:00
3:56 AM,43.0,39.0,86,30.37,10.0,Calm,Calm,-,N/A,,Partly Cloudy,0,2012-11-30 08:56:00
4:56 AM,43.0,39.0,86,30.37,10.0,Calm,Calm,-,N/A,,Partly Cloudy,0,2012-11-30 09:56:00
5:56 AM,39.9,37.9,93,30.37,10.0,North,3.5,-,N/A,,Partly Cloudy,10,2012-11-30 10:56:00
6:56 AM,42.1,39.0,89,30.38,10.0,NNE,3.5,-,N/A,,Partly Cloudy,30,2012-11-30 11:56:00
7:56 AM,45.0,41.0,86,30.39,10.0,North,3.5,-,N/A,,Scattered Clouds,360,2012-11-30 12:56:00
8:56 AM,52.0,45.0,77,30.40,10.0,NNE,4.6,-,N/A,,Scattered Clouds,30,2012-11-30 13:56:00
9:56 AM,57.9,46.9,67,30.41,10.0,Calm,Calm,-,N/A,,Scattered Clouds,0,2012-11-30 14:56:00
10:56 AM,63.0,46.0,54,30.40,10.0,NE,4.6,-,N/A,,Scattered Clouds,50,2012-11-30 15:56:00
11:56 AM,64.9,46.0,50,30.37,10.0,Variable,4.6,-,N/A,,Scattered Clouds,0,2012-11-30 16:56:00
12:56 PM,64.9,46.0,50,30.34,10.0,Variable,3.5,-,N/A,,Mostly Cloudy,0,2012-11-30 17:56:00
1:56 PM,66.9,46.9,49,30.32,10.0,Variable,3.5,-,N/A,,Mostly Cloudy,0,2012-11-30 18:56:00
2:56 PM,66.9,46.9,49,30.31,10.0,SE,4.6,-,N/A,,Mostly Cloudy,140,2012-11-30 19:56:00
3:56 PM,64.9,48.0,54,30.31,10.0,SE,4.6,-,N/A,,Mostly Cloudy,130,2012-11-30 20:56:00
4:56 PM,62.1,48.0,60,30.32,10.0,ESE,6.9,-,N/A,,Mostly Cloudy,120,2012-11-30 21:56:00
5:56 PM,57.9,46.9,67,30.32,10.0,East,4.6,-,N/A,,Mostly Cloudy,100,2012-11-30 22:56:00
6:56 PM,55.9,45.0,67,30.33,10.0,ENE,3.5,-,N/A,,Mostly Cloudy,60,2012-11-30 23:56:00
7:56 PM,55.0,48.0,77,30.33,10.0,East,4.6,-,N/A,,Scattered Clouds,100,2012-12-01 00:56:00
8:56 PM,51.1,46.9,86,30.34,10.0,Calm,Calm,-,N/A,,Scattered Clouds,0,2012-12-01 01:56:00
9:56 PM,48.9,46.9,93,30.33,10.0,Calm,Calm,-,N/A,,Scattered Clouds,0,2012-12-01 02:56:00
10:56 PM,48.9,46.9,93,30.33,10.0,ENE,5.8,-,N/A,,Partly Cloudy,60,2012-12-01 03:56:00
11:56 PM,50.0,48.0,93,30.33,10.0,NNE,3.5,-,N/A,,Partly Cloudy,20,2012-12-01 04:56:00